Weather in Orenburg

Russia / Orenburg Oblast     51°46′05″N   55°05′49″E
temp.,
°C
wind,
m/s
gust,
m/s
humid.,
%
clouds,
%
prec.,
mm/h
press.,
hPa
HPBL,
m
7 march, sun
sun723:00−6e2392100 0.1 101266
02:00−6ne4796100 1.4 1009224
05:00−7nne5895100 2.9 1008330
08:00−7n61193100 0.9 1008407
11:00−7n6987100 1.2 1009465
14:00−7nnw697295 0.0 1011645
17:00−8nw477947 0.0 1013482
20:00−13w33870 0.0 101524
8 march, mon
mon823:00−15sw34910 0.0 101638
02:00−16sw479521 0.0 1015127
05:00−12ssw5119160 0.0 1014330
08:00−9ssw91784100 0.0 1012605
11:00−6sw111884100 0.1 1010958
14:00−3sw121790100 0.2 10101110
17:00−2sw101593100 0.7 10101126
20:00−3sw81493100 0.5 1010790
9 march, tue
tue923:00−2sw81494100 0.9 1011738
02:00−3ssw81594100 0.4 1010666
05:00−3ssw81591100 0.7 1009616
08:00−4sw71494100 0.4 1009559
11:00−2sw71193100 0.8 1010724
14:00−1sw6998100 0.5 1010566
17:00−1w2398100 1.3 1008293
20:00−3e2798100 2.2 1007385
10 march, wed
wed1023:00−2wsw4997100 5.1 1006514
02:00−8nw51091100 1.1 1006336
05:00−12w499299 1.1 1008182
08:00−15w469585 0.0 101094
11:00−12w579288 0.0 1012324
14:00−11w578994 0.0 1013475
17:00−11wnw578997 0.0 1014560
20:00−14w4993100 0.1 1016256
11 march, thu
thu1123:00−19wnw349595 0.1 101754
02:00−21w349694 0.0 101854
05:00−21wnw349797 0.1 102081
08:00−21wnw239695 0.1 102158
11:00−19nw248993 0.1 1024337
14:00−17wnw348297 0.0 1025528
17:00−17wnw468694 0.0 1026441
20:00−23w349217 0.0 102730